DW3823 Weather Reports


Display with metric or nautical units.
time (UTC)temp
F
wind
direction
speed
MPH
gust
MPH
rain 1hr
in
rain 24hr
in
rain mn
in
humidity
%
barometer
mb
20260905011535 80 323 0.0 0.0 0.00 0.00 0.00 83 1013.7
20260905011024 80 323 0.0 0.0 0.00 0.00 0.00 84 1014.0
20260905010524 80 323 0.0 0.0 0.00 0.00 0.00 84 1014.0
20260905010023 80 323 0.0 0.0 0.00 0.00 0.00 82 1013.9
20260905005525 81 323 0.0 0.0 0.00 0.00 0.00 81 1013.7
20260905005025 81 323 0.0 0.0 0.00 0.00 0.00 82 1013.9
20260905004523 81 323 0.0 0.0 0.00 0.00 0.00 83 1013.8
20260905004023 81 323 0.0 0.0 0.00 0.00 0.00 83 1013.6
20260905003524 81 323 0.0 0.0 0.00 0.00 0.00 82 1013.5
20260905003029 82 323 0.0 0.0 0.00 0.00 0.00 79 1013.5
20260905002523 82 323 0.0 1.0 0.00 0.00 0.00 81 1013.6
20260905002023 83 323 0.0 2.0 0.00 0.00 0.00 79 1013.5
20260905001523 83 323 0.0 2.0 0.00 0.00 0.00 80 1013.6
20260905001024 83 323 0.0 0.0 0.00 0.00 0.00 78 1013.5
20260905000522 84 323 0.0 1.0 0.00 0.00 0.00 77 1013.4
20260905000022 84 323 0.0 1.0 0.00 0.00 0.00 76 1013.4
20260904235521 84 323 0.0 1.0 0.00 0.00 0.00 77 1013.5
20260904235025 85 323 0.0 2.0 0.00 0.00 0.00 77 1013.6
20260904234522 85 323 1.0 3.0 0.00 0.00 0.00 76 1013.3
20260904234023 85 323 1.0 3.0 0.00 0.00 0.00 75 1013.3
20260904233521 85 135 0.0 2.0 0.00 0.00 0.00 78 1013.4
20260904233021 85 135 0.0 1.0 0.00 0.00 0.00 78 1013.2
20260904232521 87 135 0.0 1.0 0.00 0.00 0.00 74 1013.1
20260904232020 88 135 0.0 1.0 0.00 0.00 0.00 71 1013.2
20260904231521 88 135 0.0 0.0 0.00 0.00 0.00 70 1013.4
20260904231021 88 135 0.0 2.0 0.00 0.00 0.00 69 1013.3
20260904230620 88 135 0.0 2.0 0.00 0.00 0.00 68 1013.2
20260904230020 89 136 0.0 1.0 0.00 0.00 0.00 66 1013.2
20260904225524 89 136 0.0 3.0 0.00 0.00 0.00 67 1013.1
20260904225020 90 136 1.0 3.0 0.00 0.00 0.00 63 1013.1
20260904224519 91 154 0.0 3.0 0.00 0.00 0.00 60 1013.1
20260904224019 91 154 0.0 3.0 0.00 0.00 0.00 63 1012.9
20260904223518 91 148 0.0 2.0 0.00 0.00 0.00 63 1012.7
20260904223019 92 148 0.0 3.0 0.00 0.00 0.00 61 1012.8
20260904222519 93 148 1.0 3.0 0.00 0.00 0.00 57 1012.8
20260904222018 93 185 1.0 5.0 0.00 0.00 0.00 56 1013.0
20260904221518 93 175 2.0 5.0 0.00 0.00 0.00 55 1012.9
20260904221018 92 181 1.0 4.0 0.00 0.00 0.00 57 1013.0
20260904220519 90 150 1.0 3.0 0.00 0.00 0.00 60 1013.0
20260904220018 88 178 0.0 2.0 0.00 0.00 0.00 69 1013.0
20260904215518 87 178 0.0 2.0 0.00 0.00 0.00 70 1013.1
20260904215017 88 178 1.0 2.0 0.00 0.00 0.00 68 1012.8
20260904214517 87 178 0.0 1.0 0.00 0.00 0.00 68 1012.9
20260904214017 88 178 0.0 3.0 0.00 0.00 0.00 65 1012.7
20260904213516 89 178 1.0 3.0 0.00 0.00 0.00 63 1012.9
20260904213016 89 175 0.0 5.0 0.00 0.00 0.00 63 1013.0
20260904212515 90 203 0.0 5.0 0.00 0.00 0.00 59 1013.0
20260904212015 91 165 2.0 6.0 0.00 0.00 0.00 56 1013.1
20260904211515 92 195 2.0 9.0 0.00 0.00 0.00 56 1013.1
20260904211014 92 172 2.0 9.0 0.00 0.00 0.00 56 1013.1
20260904210514 94 147 2.0 7.0 0.00 0.00 0.00 55 1013.3
20260904210014 95 163 1.0 7.0 0.00 0.00 0.00 52 1013.3
20260904205519 97 324 1.0 3.0 0.00 0.00 0.00 48 1013.1
20260904205014 96 302 1.0 3.0 0.00 0.00 0.00 48 1013.1
20260904204513 95 278 1.0 2.0 0.00 0.00 0.00 54 1013.0
20260904204012 94 276 0.0 3.0 0.00 0.00 0.00 53 1013.3
20260904203512 95 275 0.0 6.0 0.00 0.00 0.00 50 1013.6
20260904203016 97 49 1.0 3.0 0.00 0.00 0.00 49 1013.4
20260904202510 98 41 1.0 6.0 0.00 0.00 0.00 49 1013.4
20260904202010 97 313 3.0 6.0 0.00 0.00 0.00 47 1013.5
20260904201510 98 319 2.0 4.0 0.00 0.00 0.00 45 1013.5
20260904201010 98 335 2.0 4.0 0.00 0.00 0.00 45 1013.6
20260904200507 97 301 2.0 6.0 0.00 0.00 0.00 48 1013.5
20260904200007 97 257 1.0 6.0 0.00 0.00 0.00 45 1013.5
20260904195506 97 311 2.0 5.0 0.00 0.00 0.00 45 1013.7
20260904195007 97 44 1.0 3.0 0.00 0.00 0.00 48 1013.7
20260904194506 97 355 1.0 4.0 0.00 0.00 0.00 50 1013.8
20260904194004 98 69 2.0 4.0 0.00 0.00 0.00 48 1014.0
20260904193502 97 71 1.0 5.0 0.00 0.00 0.00 52 1014.2
20260904193002 96 82 1.0 5.0 0.00 0.00 0.00 48 1014.2
20260904192501 96 108 1.0 5.0 0.00 0.00 0.00 47 1014.4
20260904192001 95 173 2.0 4.0 0.00 0.00 0.00 49 1014.4
20260904191501 93 265 0.0 3.0 0.00 0.00 0.00 51 1014.5
20260904190600 95 281 0.0 7.0 0.00 0.00 0.00 48 1014.6
20260904190059 97 323 3.0 7.0 0.00 0.00 0.00 48 1014.6
20260904185558 96 258 2.0 4.0 0.00 0.00 0.00 48 1014.6
20260904185058 97 271 2.0 6.0 0.00 0.00 0.00 49 1014.7
20260904184557 96 286 1.0 4.0 0.00 0.00 0.00 48 1014.9
20260904184057 96 289 2.0 5.0 0.00 0.00 0.00 50 1015.0
20260904183557 96 320 2.0 4.0 0.00 0.00 0.00 49 1014.9
20260904183112 96 336 1.0 4.0 0.00 0.00 0.00 50 1014.8
20260904182556 96 295 1.0 5.0 0.00 0.00 0.00 48 1014.9
20260904182054 96 245 1.0 5.0 0.00 0.00 0.00 50 1015.0
20260904181606 95 268 2.0 6.0 0.00 0.00 0.00 51 1015.3
20260904181054 95 109 2.0 4.0 0.00 0.00 0.00 51 1015.6
20260904180556 93 306 1.0 4.0 0.00 0.00 0.00 54 1015.5
20260904180054 94 263 1.0 7.0 0.00 0.00 0.00 52 1015.5
20260904175555 96 278 1.0 6.0 0.00 0.00 0.00 51 1015.4
20260904175055 95 61 1.0 8.0 0.00 0.00 0.00 50 1015.4
20260904174554 96 34 3.0 8.0 0.00 0.00 0.00 51 1015.7
20260904174051 95 236 2.0 5.0 0.00 0.00 0.00 53 1015.7
20260904173552 95 282 1.0 4.0 0.00 0.00 0.00 52 1015.7
20260904173051 95 65 1.0 6.0 0.00 0.00 0.00 54 1015.7
20260904172552 95 242 1.0 5.0 0.00 0.00 0.00 53 1015.9
20260904172050 95 294 1.0 5.0 0.00 0.00 0.00 54 1015.9
20260904171551 95 25 2.0 4.0 0.00 0.00 0.00 53 1015.7
20260904171047 95 112 1.0 4.0 0.00 0.00 0.00 53 1015.7
20260904170546 94 78 1.0 4.0 0.00 0.00 0.00 55 1015.9
20260904170045 94 74 1.0 3.0 0.00 0.00 0.00 56 1015.9
20260904165545 94 260 0.0 4.0 0.00 0.00 0.00 55 1016.1
20260904165043 94 289 1.0 6.0 0.00 0.00 0.00 55 1016.1
20260904164546 94 327 1.0 6.0 0.00 0.00 0.00 54 1016.2
20260904164043 94 317 3.0 6.0 0.00 0.00 0.00 55 1016.3
20260904163541 93 90 1.0 7.0 0.00 0.00 0.00 56 1016.2
20260904163041 93 86 2.0 4.0 0.00 0.00 0.00 56 1016.4
20260904162545 93 351 1.0 4.0 0.00 0.00 0.00 57 1016.4
20260904162037 93 248 2.0 4.0 0.00 0.00 0.00 59 1016.5
20260904161537 93 254 2.0 4.0 0.00 0.00 0.00 60 1016.2
20260904161038 92 139 0.0 5.0 0.00 0.00 0.00 60 1016.2
20260904160534 92 130 1.0 5.0 0.00 0.00 0.00 59 1016.4
20260904160033 92 195 1.0 4.0 0.00 0.00 0.00 59 1016.4
20260904155532 92 9 1.0 3.0 0.00 0.00 0.00 60 1016.5
20260904155030 92 321 1.0 4.0 0.00 0.00 0.00 59 1016.7
20260904154542 92 324 2.0 5.0 0.00 0.00 0.00 60 1016.5
20260904154030 92 242 1.0 7.0 0.00 0.00 0.00 61 1016.6
20260904153525 91 164 2.0 6.0 0.00 0.00 0.00 60 1016.5
20260904153026 91 155 1.0 2.0 0.00 0.00 0.00 61 1016.6
20260904152526 91 249 0.0 4.0 0.00 0.00 0.00 62 1016.6
20260904152021 91 249 2.0 4.0 0.00 0.00 0.00 60 1016.6
20260904151522 90 242 2.0 4.0 0.00 0.00 0.00 61 1016.4
20260904151018 90 217 2.0 4.0 0.00 0.00 0.00 63 1016.5
20260904150516 90 182 1.0 4.0 0.00 0.00 0.00 64 1016.4
20260904150018 90 273 1.0 4.0 0.00 0.00 0.00 63 1016.4
20260904145514 90 214 1.0 5.0 0.00 0.00 0.00 64 1016.3
20260904145012 89 302 1.0 4.0 0.00 0.00 0.00 65 1016.3
20260904144510 89 242 1.0 5.0 0.00 0.00 0.00 64 1016.5
20260904144012 88 213 1.0 6.0 0.00 0.00 0.00 64 1016.4
20260904143508 87 175 2.0 6.0 0.00 0.00 0.00 66 1016.4
20260904143006 87 177 1.0 5.0 0.00 0.00 0.00 67 1016.3
20260904142505 86 238 2.0 5.0 0.00 0.00 0.00 67 1016.3
20260904142004 86 163 0.0 3.0 0.00 0.00 0.00 68 1016.4
20260904141507 86 338 0.0 4.0 0.00 0.00 0.00 68 1016.3
20260904141002 85 336 1.0 4.0 0.00 0.00 0.00 71 1016.3
20260904140600 85 175 0.0 3.0 0.00 0.00 0.00 73 1016.4
20260904140059 85 175 1.0 5.0 0.00 0.00 0.00 69 1016.3
20260904135601 85 159 2.0 5.0 0.00 0.00 0.00 71 1016.2
20260904135057 84 155 2.0 5.0 0.00 0.00 0.00 71 1016.3
20260904134600 84 225 1.0 4.0 0.00 0.00 0.00 73 1016.3
20260904134057 83 183 1.0 4.0 0.00 0.00 0.00 74 1016.3
20260904133552 82 161 1.0 3.0 0.00 0.00 0.00 76 1016.3
20260904133051 81 159 0.0 3.0 0.00 0.00 0.00 78 1016.1
20260904132551 81 161 0.0 5.0 0.00 0.00 0.00 79 1016.1
20260904132048 80 173 2.0 5.0 0.00 0.00 0.00 80 1016.2
20260904131548 78 210 0.0 2.0 0.00 0.00 0.00 85 1016.3
20260904131045 77 211 0.0 1.0 0.00 0.00 0.00 89 1016.2
20260904130543 76 211 0.0 1.0 0.00 0.00 0.00 91 1016.2
20260904130042 75 211 0.0 0.0 0.00 0.00 0.00 91 1016.1
20260904125541 75 211 0.0 0.0 0.00 0.00 0.00 92 1016.1
20260904125039 74 211 0.0 0.0 0.00 0.00 0.00 92 1016.1
20260904124538 74 211 0.0 0.0 0.00 0.00 0.00 92 1016.0
20260904124039 74 211 0.0 1.0 0.00 0.00 0.00 92 1016.0
20260904123538 74 211 0.0 1.0 0.00 0.00 0.00 93 1015.8
20260904123038 73 211 0.0 0.0 0.00 0.00 0.00 93 1015.8
20260904122537 73 211 0.0 0.0 0.00 0.00 0.00 93 1015.9
20260904122037 73 211 0.0 0.0 0.00 0.00 0.00 93 1015.9
20260904121536 72 211 0.0 0.0 0.00 0.00 0.00 93 1015.9
20260904121040 72 211 0.0 0.0 0.00 0.00 0.00 94 1015.8
20260904120535 72 211 0.0 0.0 0.00 0.00 0.00 94 1015.8
20260904120045 72 211 0.0 0.0 0.00 0.00 0.00 93 1016.0
20260904115534 72 211 0.0 0.0 0.00 0.00 0.00 93 1015.9
20260904115034 71 211 0.0 0.0 0.00 0.00 0.00 93 1015.7
20260904114533 71 211 0.0 0.0 0.00 0.00 0.00 93 1015.6
20260904114033 71 211 0.0 0.0 0.00 0.00 0.00 94 1015.7
20260904113532 71 211 0.0 0.0 0.00 0.00 0.00 94 1015.9
20260904113036 71 211 0.0 0.0 0.00 0.00 0.00 94 1015.7
20260904112530 71 211 0.0 0.0 0.00 0.00 0.00 93 1015.4
20260904112029 71 211 0.0 0.0 0.00 0.00 0.00 93 1015.6
20260904111529 71 211 0.0 0.0 0.00 0.00 0.00 93 1015.5
20260904111030 71 211 0.0 0.0 0.00 0.00 0.00 94 1015.4
20260904110529 71 211 0.0 0.0 0.00 0.00 0.00 93 1015.4
20260904110029 71 211 0.0 0.0 0.00 0.00 0.00 93 1015.3
20260904105529 71 211 0.0 0.0 0.00 0.00 0.00 93 1015.2
20260904105028 71 211 0.0 0.0 0.00 0.00 0.00 93 1015.0
20260904104542 71 211 0.0 1.0 0.00 0.00 0.00 93 1014.9
20260904104031 71 211 0.0 1.0 0.00 0.00 0.00 93 1014.9
20260904103527 71 211 0.0 0.0 0.00 0.00 0.00 93 1014.9
20260904103027 71 211 0.0 0.0 0.00 0.00 0.00 93 1015.0
20260904102529 71 211 0.0 0.0 0.00 0.00 0.00 93 1014.9
20260904102030 71 211 0.0 0.0 0.00 0.00 0.00 93 1014.9
20260904101526 71 211 0.0 0.0 0.00 0.00 0.00 92 1014.9
20260904101026 72 211 0.0 0.0 0.00 0.00 0.00 92 1014.9
20260904100525 72 211 0.0 1.0 0.00 0.00 0.00 92 1014.8
20260904100031 72 211 0.0 1.0 0.00 0.00 0.00 93 1014.7
20260904095527 72 211 0.0 1.0 0.00 0.00 0.00 93 1014.6
20260904095024 71 211 0.0 0.0 0.00 0.00 0.00 93 1014.6
20260904094532 71 211 0.0 0.0 0.00 0.00 0.00 93 1014.7
20260904094025 71 211 0.0 0.0 0.00 0.00 0.00 93 1014.7
20260904093525 71 211 0.0 0.0 0.00 0.00 0.00 93 1014.6
20260904093024 72 211 0.0 0.0 0.00 0.00 0.00 93 1014.8
20260904092523 72 211 0.0 0.0 0.00 0.00 0.00 92 1014.7
20260904092024 72 211 0.0 0.0 0.00 0.00 0.00 92 1014.7
20260904091523 72 211 0.0 1.0 0.00 0.00 0.00 92 1014.9
20260904091023 72 211 0.0 1.0 0.00 0.00 0.00 92 1014.8
20260904090521 72 211 0.0 1.0 0.00 0.00 0.00 93 1014.7
20260904090021 72 211 0.0 0.0 0.00 0.00 0.00 93 1014.8
20260904085520 72 211 0.0 0.0 0.00 0.00 0.00 92 1014.9
20260904085020 72 211 0.0 0.0 0.00 0.00 0.00 92 1014.8
20260904084523 72 211 0.0 0.0 0.00 0.00 0.00 91 1014.8
20260904084019 72 211 0.0 0.0 0.00 0.00 0.00 91 1014.7
20260904083519 72 211 0.0 0.0 0.00 0.00 0.00 91 1014.7
20260904083020 72 211 0.0 0.0 0.00 0.00 0.00 91 1014.6
20260904082519 72 211 0.0 0.0 0.00 0.00 0.00 92 1014.6
20260904082019 72 211 0.0 0.0 0.00 0.00 0.00 91 1014.6
20260904081519 72 211 0.0 0.0 0.00 0.00 0.00 91 1014.6
20260904081018 72 211 0.0 0.0 0.00 0.00 0.00 91 1014.5
20260904080518 72 211 0.0 0.0 0.00 0.00 0.00 91 1014.5
20260904080019 72 211 0.0 0.0 0.00 0.00 0.00 91 1014.4
20260904075518 72 211 0.0 0.0 0.00 0.00 0.00 91 1014.5
20260904075017 73 211 0.0 0.0 0.00 0.00 0.00 90 1014.4
20260904074518 73 211 0.0 0.0 0.00 0.00 0.00 90 1014.4
20260904074015 73 211 0.0 0.0 0.00 0.00 0.00 89 1014.4
20260904073515 73 211 0.0 0.0 0.00 0.00 0.00 89 1014.6
20260904073014 73 211 0.0 0.0 0.00 0.00 0.00 88 1014.5
20260904072513 73 211 0.0 0.0 0.00 0.00 0.00 88 1014.7
20260904072013 74 211 0.0 0.0 0.00 0.00 0.00 88 1014.6
20260904071513 74 211 0.0 0.0 0.00 0.00 0.00 88 1014.8
20260904071013 74 211 0.0 0.0 0.00 0.00 0.00 88 1014.5
20260904070515 74 211 0.0 0.0 0.00 0.00 0.00 87 1014.5
20260904070017 74 211 0.0 0.0 0.00 0.00 0.00 87 1014.8
20260904065511 74 211 0.0 1.0 0.00 0.00 0.00 87 1014.9
20260904065012 74 211 0.0 1.0 0.00 0.00 0.00 88 1014.6
20260904064512 73 211 0.0 0.0 0.00 0.00 0.00 89 1014.6
20260904064010 74 211 0.0 0.0 0.00 0.00 0.00 89 1014.7
20260904063509 74 211 0.0 0.0 0.00 0.00 0.00 87 1014.8
20260904063018 74 211 0.0 0.0 0.00 0.00 0.00 87 1015.0
20260904062507 74 211 0.0 1.0 0.00 0.00 0.00 88 1014.9
20260904062007 74 211 0.0 1.0 0.00 0.00 0.00 88 1014.9
20260904061507 74 211 0.0 0.0 0.00 0.00 0.00 89 1014.9
20260904061008 74 211 0.0 0.0 0.00 0.00 0.00 89 1014.9
20260904060508 74 211 0.0 0.0 0.00 0.00 0.00 88 1014.9
20260904060004 74 211 0.0 0.0 0.00 0.00 0.00 89 1014.9
20260904055503 74 211 0.0 0.0 0.00 0.00 0.00 89 1014.9
20260904055004 74 211 0.0 0.0 0.00 0.00 0.00 88 1015.0
20260904054502 74 211 0.0 0.0 0.00 0.00 0.00 88 1015.0
20260904054003 74 211 0.0 0.0 0.00 0.00 0.00 88 1015.0
20260904053600 74 211 0.0 0.0 0.00 0.00 0.00 88 1015.1
20260904053104 75 211 0.0 0.0 0.00 0.00 0.00 87 1015.1
20260904052559 75 211 0.0 0.0 0.00 0.00 0.00 86 1015.2
20260904052158 75 211 0.0 0.0 0.00 0.00 0.00 86 1015.3
20260904051556 75 211 0.0 0.0 0.00 0.00 0.00 87 1015.2
20260904051054 75 211 0.0 1.0 0.00 0.00 0.00 87 1015.5
20260904050552 75 211 0.0 1.0 0.00 0.00 0.00 87 1015.4
20260904050051 75 211 0.0 0.0 0.00 0.00 0.00 87 1015.3
20260904045552 75 211 0.0 0.0 0.00 0.00 0.00 87 1015.4
20260904045052 75 211 0.0 0.0 0.00 0.00 0.00 87 1015.2
20260904044551 76 211 0.0 1.0 0.00 0.00 0.00 85 1015.3
20260904044053 76 211 0.0 1.0 0.00 0.00 0.00 86 1015.3
20260904043550 75 211 0.0 0.0 0.00 0.00 0.00 87 1015.2
20260904043103 75 360 0.0 0.0 0.00 0.00 0.00 87 1015.1
20260904042554 76 360 0.0 0.0 0.00 0.00 0.00 86 1015.2
20260904042050 76 360 0.0 0.0 0.00 0.00 0.00 86 1015.2
20260904041549 76 211 0.0 0.0 0.00 0.00 0.00 86 1015.3
20260904041049 76 360 0.0 0.0 0.00 0.00 0.00 87 1015.3
20260904040549 76 211 0.0 0.0 0.00 0.00 0.00 86 1015.3
20260904040049 77 211 0.0 1.0 0.00 0.00 0.00 86 1015.6
20260904035548 77 211 0.0 1.0 0.00 0.00 0.00 85 1015.5
20260904035048 77 211 0.0 0.0 0.00 0.00 0.00 85 1015.5
20260904034548 77 211 0.0 1.0 0.00 0.00 0.00 85 1015.6
20260904034048 77 211 0.0 1.0 0.00 0.00 0.00 85 1015.7
20260904033549 77 211 0.0 0.0 0.00 0.00 0.00 86 1015.6
20260904033050 77 211 0.0 0.0 0.00 0.00 0.00 86 1015.6
20260904032548 76 211 0.0 0.0 0.00 0.00 0.00 88 1015.5
20260904032048 77 211 0.0 0.0 0.00 0.00 0.00 88 1015.5
20260904031548 77 211 0.0 0.0 0.00 0.00 0.00 87 1015.5
20260904031050 77 211 0.0 1.0 0.00 0.00 0.00 86 1015.6
20260904030547 78 211 0.0 1.0 0.00 0.00 0.00 86 1015.5
20260904030047 78 211 0.0 1.0 0.00 0.00 0.00 86 1015.6
20260904025547 78 211 0.0 0.0 0.00 0.00 0.00 85 1015.8
20260904025047 78 211 0.0 0.0 0.00 0.00 0.00 87 1015.7
20260904024548 78 211 0.0 0.0 0.00 0.00 0.00 86 1015.7
20260904024049 78 211 0.0 0.0 0.00 0.00 0.00 85 1015.7
20260904023549 78 211 0.0 0.0 0.00 0.00 0.00 85 1015.7
20260904023046 78 211 0.0 0.0 0.00 0.00 0.00 86 1015.7
20260904022546 78 211 0.0 0.0 0.00 0.00 0.00 87 1015.6
20260904022046 78 211 0.0 0.0 0.00 0.00 0.00 88 1015.6
20260904021552 78 211 0.0 0.0 0.00 0.00 0.00 87 1015.7
20260904021046 78 211 0.0 0.0 0.00 0.00 0.00 88 1015.3
20260904020550 78 211 0.0 0.0 0.00 0.00 0.00 87 1015.3
20260904020045 78 211 0.0 0.0 0.00 0.00 0.00 86 1015.3
20260904015544 78 211 0.0 0.0 0.00 0.00 0.00 87 1015.3
20260904015045 78 211 0.0 0.0 0.00 0.00 0.00 88 1015.3
20260904014547 78 211 0.0 0.0 0.00 0.00 0.00 87 1015.2
20260904014045 79 211 0.0 0.0 0.00 0.00 0.00 86 1015.1
20260904013549 79 211 0.0 0.0 0.00 0.00 0.00 87 1015.3
20260904013048 79 211 0.0 0.0 0.00 0.00 0.00 86 1015.3
20260904012544 79 211 0.0 0.0 0.00 0.00 0.00 85 1015.2
20260904012044 78 211 0.0 0.0 0.00 0.00 0.00 88 1015.1